This demonstration page uses our WeatherBlox Daily Observations layout. Learn more.

Left ArrowRight Arrow

39.01783, -85.05884

Hourly Observations for January 20, 2021

Temp ( °F °C ) Dew Point ( °F °C ) Humidity (%) Winds ( mph kmh ) Pressure ( in mb ) Visibility ( mi km ) Precip ( " mm )
12:52 am 00:52 Mostly Cloudy 37 2.8 23 -5 57 57 W 24 39 30.13 1020 10 16 0.00 0.00
1:52 am 01:52 Cloudy 36 2.2 23 -5 59 59 W 16 26 30.14 1021 10 16 0.00 0.00
2:52 am 02:52 Cloudy 36 2.2 24 -4.4 62 62 W 14 22 30.15 1021 10 16 0.00 0.00
3:52 am 03:52 Partly Cloudy 34 1.1 19 -7.2 54 54 WNW 21 33 30.17 1022 10 16 0.00 0.00
4:52 am 04:52 Mostly Cloudy 31 -0.6 19 -7.2 61 61 WNW 21 33 30.21 1023 10 16 0.00 0.00
5:52 am 05:52 Cloudy 30 -1.1 18 -7.8 61 61 W 13 20 30.23 1024 10 16 0.00 0.00
6:52 am 06:52 Cloudy 30 -1.1 19 -7.2 64 64 WNW 15 24 30.24 1024 10 16 0.00 0.00
6:59 am 06:59 Cloudy 30 -1.1 19 -7.2 64 64 WNW 10 17 30.28 1025 10 16 0.00 0.00
7:40 am 07:40 Cloudy 29 -1.7 19 -7.2 66 66 W 13 20 30.29 1026 10 16 0.00 0.00
7:52 am 07:52 Cloudy 29 -1.7 19 -7.2 66 66 W 9 15 30.26 1025 10 16 0.00 0.00
8:18 am 08:18 Cloudy 29 -1.7 19 -7.2 66 66 W 10 17 30.30 1026 10 16 0.00 0.00
8:52 am 08:52 Cloudy 29 -1.7 19 -7.2 66 66 W 12 19 30.27 1025 10 16 0.00 0.00
9:52 am 09:52 Mostly Sunny 31 -0.6 19 -7.2 61 61 W 10 17 30.29 1026 10 16 0.00 0.00
10:22 am 10:22 Mostly Cloudy 30 -1.1 19 -7.2 64 64 W 12 19 30.34 1027 10 16 0.00 0.00
10:52 am 10:52 Mostly Cloudy 31 -0.6 18 -7.8 59 59 WSW 9 15 30.31 1026 10 16 0.00 0.00
11:22 am 11:22 Mostly Cloudy 33 0.6 18 -7.8 54 54 SW 9 15 30.34 1028 10 16 0.00 0.00
11:52 am 11:52 Partly Cloudy 33 0.6 18 -7.8 54 54 W 8 13 30.30 1026 10 16 0.00 0.00
12:52 pm 12:52 Mostly Sunny 35 1.7 16 -8.9 46 46 WSW 9 15 30.26 1025 10 16 0.00 0.00
1:52 pm 13:52 Sunny 36 2.2 16 -8.9 44 44 VRB 5 7 30.20 1023 10 16 0.00 0.00
2:52 pm 14:52 Sunny 37 2.8 18 -7.8 46 46 S 9 15 30.14 1021 10 16 0.00 0.00
3:52 pm 15:52 Sunny 37 2.8 16 -8.9 42 42 SW 10 17 30.16 1021 10 16 0.00 0.00
4:52 pm 16:52 Mostly Sunny 36 2.2 16 -8.9 44 44 SW 9 15 30.13 1020 10 16 0.00 0.00
5:52 pm 17:52 Mostly Clear 33 0.6 15 -9.4 47 47 SW 7 11 30.12 1020 10 16 0.00 0.00
6:52 pm 18:52 Partly Cloudy 31 -0.6 14 -10 49 49 SW 7 11 30.11 1020 10 16 0.00 0.00
7:52 pm 19:52 Mostly Cloudy 28 -2.2 15 -9.4 58 58 S 7 11 30.08 1019 10 16 0.00 0.00
8:52 pm 20:52 Mostly Clear 28 -2.2 16 -8.9 60 60 SSW 3 6 30.06 1018 10 16 0.00 0.00
9:52 pm 21:52 Partly Cloudy 29 -1.7 16 -8.9 58 58 S 10 17 30.02 1017 10 16 0.00 0.00
10:52 pm 22:52 Cloudy 32 0 15 -9.4 50 50 SSW 12 19 29.98 1015 10 16 0.00 0.00
11:52 pm 23:52 Cloudy 33 0.6 15 -9.4 47 47 SSW 12 19 29.97 1015 10 16 0.00 0.00

Powered by AerisWeather